Location: Peterborough
(44.3091°N, 78.3197°W)
Time: 17:44:58
(UTC-04:00)

Transit 2A - Pass Details

Date: 29 March 2023
Orbit: 591 x 964 km, 66.7° (Epoch: 04 June)

Event Time Altitude Azimuth Distance (km) Brightness Sun altitude
Rises 13:52:49 0° 328° (NNW) 3,641 9.2 48.5°
Reaches altitude 10° 13:55:23 10° 329° (NNW) 2,705 8.7 48.4°
Maximum altitude 14:01:49 85° 58° (ENE) 968 7.4 48.1°
Drops below altitude 10° 14:08:03 10° 148° (SSE) 2,627 9.3 47.7°
Sets 14:10:31 0° 149° (SSE) 3,531 9.8 47.6°
